Content
SEND FEEDBACK

Daily
Averages
Monthly
Summary
United States of America

RIO VISTA, CALIFORNIA


Home > North America > United States > California
Elevation: 20 feet     Latitude: 38 10N     Longitude: 121 41W

WEATHER
 
SELECT A DAY
Number of Records: 216,014;   Date Range: 1/1/95 - 11/21/14
 
SHARE

PRINT THIS DATA

[ ← Previous Day ]
WEATHER ALMANAC - JANUARY 31, 2013
[ Next Day → ]
[ °C ]   °F
Weather ElementAverageHighLow
Temperature46.5 °F62.8 °F (3:58 pm)34 °F (6:58 am)
Dewpoint43.4 °F52.3 °F (5:58 pm)34 °F (6:58 am)
Humidity90.8 %100 % (1:58 am)58 % (3:58 pm)
Barometer30.26 in30.33 in (8:58 am)30.21 in (4:58 pm)
Wind Speed4.5 mph9.2 mph (6:58 am)
Weather ElementAverage
Visibility10 mi
Wind DirectionENE (72.6 °)

Weather ElementTotal
Precipitation---
Heating Degree Days16.6 (Base 65)
Averaged from 23 records on January 31, 2013
WEATHER CONDITIONS BREAKOUT
WIND DIRECTION BREAKOUT
WEATHER BY HOUR - JANUARY 31, 2013
[ °C ]   °F
Local TimeTemperatureDewpointHumidityBarometerVisibilityWind DirectionWind SpeedGust SpeedPrecipitationEventsConditions
1:58 AM37.8 °F37.8 °F100 %30.30 in10.0 miWest (280°)3.5 mphClear
2:58 AM38.3 °F38.3 °F100 %30.29 in10.0 miNW (320°)3.5 mphClear
3:58 AM36.7 °F36.7 °F100 %30.29 in10.0 miCalmClear
4:58 AM35.8 °F35.8 °F100 %30.29 in10.0 miNNE (30°)4.6 mphClear
5:58 AM35.4 °F35.4 °F100 %30.30 in10.0 miESE (110°)5.8 mphClear
6:58 AM34.0 °F34.0 °F100 %30.31 in10.0 miNNE (20°)9.2 mphClear
7:58 AM35.2 °F35.2 °F100 %30.32 in10.0 miNNE (20°)4.6 mphClear
8:58 AM44.2 °F44.2 °F100 %30.33 in10.0 miNE (50°)8.1 mphClear
9:58 AM48.6 °F48.4 °F99 %30.33 in10.0 miNE (50°)6.9 mphClear
10:58 AM52.9 °F51.1 °F94 %30.32 in10.0 miENE (60°)6.9 mphClear
11:58 AM56.8 °F49.3 °F76 %30.29 in10.0 miNE (50°)5.8 mphClear
12:58 PM59.5 °F48.9 °F68 %30.27 in10.0 miNE (40°)4.6 mphClear
1:58 PM61.0 °F47.3 °F61 %30.24 in10.0 miEast (100°)4.6 mphClear
2:58 PM62.2 °F47.7 °F59 %30.23 in10.0 miENE (60°)5.8 mphClear
3:58 PM62.8 °F47.8 °F58 %30.22 in10.0 miEast (80°)6.9 mphClear
4:58 PM59.9 °F52.2 °F76 %30.21 in10.0 miESE (120°)5.8 mphClear
5:58 PM52.7 °F52.3 °F99 %30.21 in10.0 miEast (100°)2.3 mphClear
6:58 PM46.0 °F46.0 °F100 %30.22 in10.0 miNNE (20°)2.3 mphClear
7:58 PM42.8 °F42.8 °F100 %30.22 in10.0 miCalmClear
8:58 PM41.9 °F41.9 °F100 %30.22 in9.0 miCalmClear
9:58 PM42.1 °F42.1 °F100 %30.22 in10.0 miNNE (20°)1.2 mphClear
10:58 PM42.3 °F42.3 °F100 %30.22 in10.0 miNorth (10°)8.1 mphClear
11:58 PM41.0 °F40.8 °F99 %30.21 in10.0 miSE (130°)3.5 mphClear
Hourly data recorded from KSUU, located miles away from Rio Vista, California







STORIES FROM OUR PARTNERS